Voltar ao catálogo

COSMOS 830

AtivoMilitarLEO
NORAD 8894·PAYLOAD·🇷🇺 Russia

Lançado Jun 15, 1976 de Plesetsk Cosmodrome

Loading…

Próximas Passagens (próximas 24 horas)

TLE

AtualizadoSource: Space-Track

Época: Sep 13, 2026, 15:29 UTC

1 08894U 76054F   26256.64554738  .00000004  00000-0  13871-3 0  9991
2 08894  74.0044 337.0607 0015746 191.8681 342.9236 12.46261449285893

Acompanhe COSMOS 830 em tempo real com AllMySat

Download on the App Store